アトラス彗星

C/2019 T4 ( ATLAS )

English version
Home page
Updated on September 4, 2021

---------------------------------------------------------------------

・ プロフィール

発見日 2019年10月9日
発見光度 19.3等
発見者 Asteroid Terrestrial-Impact Last Alert System (ATLAS) search program

・ 写真集

・ 軌道要素

Epoch 2022 May 21.0 TT = JDT 2459720.5
T 2022 June  9.13790 TT                                 Rudenko
q   4.2424912            (2000.0)            P               Q
z  +0.0009895      Peri.  351.20003     -0.95992781     +0.05603688
 +/-0.0000010      Node   199.93918     -0.18195276     -0.86982900
e   0.9958022      Incl.   53.62860     -0.21314735     +0.49016056
From 561 observations 2019 Feb. 5-2021 May 2, mean residual 0".5.

・ 星図

・ 光度変化

        m1 = -2.5 + 5 logΔ + 18.0 log r

---------------------------------------------------------------------

軌道要素はM.P.E.C. 2021-J28に掲載されたものです。
星図はステラナビゲータ Ver.10 (アストロアーツ) で作成したものです。
光度グラフはComet for Windowsで作成したものです。

---------------------------------------------------------------------

Copyright(C) Seiichi Yoshida (comet@aerith.net). All rights reserved.